Regional Weather Roundup
Issued by NWS

Home | Current Version | Previous Version | Text Only | Print | Product List | Glossary Off
Versions: 1 2 3 4 5 6 7 8 9 10 11 12 13 14 15 16 17 18 19 20 21 22 23 24 25 26 27 28 29 30 31 32 33 34 35 36 37 38 39 40 41 42 43 44 45 46 47 48 49 50

000
ASUS45 KSLC 040010
RWRUT

UTAH REGIONAL WEATHER ROUNDUP
NATIONAL WEATHER SERVICE SALT LAKE CITY UT
600 PM MDT MON AUG 03 2015

UTZ001>011-023>025-040100-

NORTHERN UTAH

CITY           SKY/WX    TMP DP  RH WIND       PRES   REMARKS
BRIGHAM CITY   CLOUDY    65  57  75 SE3       30.10F
HILL AFB       PTSUNNY   64  64  99 E6        30.13F
LOGAN          LGT RAIN  63  58  83 E7        30.11F
OGDEN          CLOUDY    66  60  81 SE7       30.11F
PROVO AIRPORT  PTSUNNY   70  55  60 VRB3      30.14F
SALT LAKE CITY CLOUDY    67  58  72 E7        30.10F
VERNAL         MOSUNNY   72  50  45 SW16G23   30.03F
WENDOVER       PTSUNNY   77  50  38 SE8       30.09S
HEBER CITY     PTSUNNY   66  52  59 SE7       30.17F
WEST JORDAN    SUNNY     68  55  64 NE6       30.13F

$$

UTZ012>022-026-027-040100-

SOUTHERN/CENTRAL UTAH

CITY           SKY/WX    TMP DP  RH WIND       PRES   REMARKS
BLANDING       MOSUNNY   82  47  29 W10G21    30.19S
BRYCE CANYON   MOSUNNY   79  35  20 SW13      30.23F
CEDAR CITY     SUNNY     88  33  14 S21G26    30.06F
DELTA          CLOUDY    76  49  39 NE16      30.06F
HANKSVILLE     PTSUNNY   82  61  47 E8        30.01F
MILFORD        NOT AVBL
MOAB/CYNLANDS  TSTM      70  56  61 N22G48    30.02R
PRICE          MOSUNNY   76  50  40 NW7       30.12S
ST GEORGE      MOCLDY   100  43  14 W12       29.86F HX  96

$$

REGIONAL REPORTS     COLORADO/ARIZONA

CITY           SKY/WX    TMP DP  RH WIND       PRES   REMARKS
CRAIG, CO      CLOUDY    69  56  62 CALM      30.13R
GRAND JUNCTION MOSUNNY   86  46  24 W16       30.01F
RIFLE          PTSUNNY   79  55  43 E14       30.06F
MONTROSE       PTSUNNY   82  49  31 SW10      30.12F
CORTEZ         SUNNY     83  47  28 W15       30.13F
PAGE, AZ       SUNNY     94  38  14 W5        29.94F
GRAND CANYON   MOSUNNY   86  35  16 SW14G24   30.19F
KINGMAN        SUNNY     97  34  11 S12G24    29.94F HX  91
FLAGSTAFF      MOSUNNY   81  39  22 SW13      30.24F

$$

REGIONAL REPORTS    NEVADA/IDAHO/WYOMING

CITY           SKY/WX    TMP DP  RH WIND       PRES   REMARKS
LAS VEGAS, NV  MOSUNNY  104  33   8 SW14      29.74F HX  97
ELY            PTSUNNY   82  34  17 NW15G23   30.11F
ELKO           MOSUNNY   88  32  13 SW12      29.99F
POCATELLO, ID  PTSUNNY   75  52  44 SE8       30.04R
BURLEY         CLOUDY    78  53  41 E7        29.98F
EVANSTON, WY   CLOUDY    56  52  86 W10       30.21S
ROCK SPRINGS   CLOUDY    60  55  83 SW21      30.12R
KEMMERER       CLOUDY    57  54  88 W16G23    30.17S

$$



USA.gov is the U.S. government's official web portal to all federal, state and local government web resources and services.